Weather History for Chicago Executive, IL

Change the Weather History Date:

Wednesday, April 23, 2014

  Actual Average Record
Temperature  
Mean Temperature 41 °F 50 °F  
Max Temperature 49 °F 61 °F 72 °F (1998)
Min Temperature 33 °F 40 °F 31 °F (2003)
Degree Days  
Heating Degree Days 24 15  
Month to date heating degree days 409 428  
Since 1 July heating degree days 6815 6019  
Cooling Degree Days 0 0  
Month to date cooling degree days 0 0  
Year to date cooling degree days 0 0  
Moisture  
Dew Point 25 °F    
Average Humidity 55    
Maximum Humidity 82    
Minimum Humidity 40    
Precipitation  
Precipitation 0.01 in 0.10 in 0.79 in (1999)
Month to date precipitation 1.38 1.99  
Year to date precipitation 4.06 6.82  
Sea Level Pressure  
Sea Level Pressure 30.16 in    
Wind  
Wind Speed 7 mph (NE)    
Max Wind Speed 15 mph    
Max Gust Speed 20 mph    
Visibility 10 miles    
Events Rain    
T = Trace of Precipitation, MM = Missing Value Source: NWS Daily Summary

Daily Weather History Graph

Daily Weather History Graph

Search for Another Location

Airport:

Trip Planner

Search our weather history database for the weather conditions in past years. The results will help you decide how hot, cold, wet, or windy it might be!

Date:

Astronomy

Apr. 23, 2014 Rise Set
Actual Time 5:58 AM CDT 7:41 PM CDT
Civil Twilight 5:28 AM CDT 8:11 PM CDT
Nautical Twilight 4:52 AM CDT 8:47 PM CDT
Astronomical Twilight 4:14 AM CDT 9:26 PM CDT
Moon 2:36 AM CDT (4/23) 1:43 PM CDT (4/23)
Length of Visible Light 14h 42m
Length of Day
13h 43m
Waning Crescent, 34% of the Moon is Illuminated
Apr 23
Waning Crescent
Apr 29
New
May 6
First Quarter
May 14
Full
May 21
Last Quarter

Hourly Weather History & Observations

Time (CDT) Temp. Windchill Dew Point Humidity Pressure Visibility Wind Dir Wind Speed Gust Speed Precip Events Conditions
1:52 AM 37.0 °F 31.6 °F 28.9 °F 73% 30.14 in 10.0 mi NE 6.9 mph - N/A   Clear
2:52 AM 35.1 °F 32.2 °F 28.0 °F 76% 30.14 in 10.0 mi NNW 3.5 mph - N/A   Clear
3:52 AM 35.1 °F 31.0 °F 28.0 °F 76% 30.16 in 10.0 mi North 4.6 mph - N/A   Clear
5:52 AM 33.1 °F 28.7 °F 28.0 °F 82% 30.17 in 10.0 mi North 4.6 mph - N/A   Clear
6:52 AM 36.0 °F 31.1 °F 28.9 °F 76% 30.19 in 10.0 mi North 5.8 mph - N/A   Clear
7:52 AM 39.0 °F 31.4 °F 27.0 °F 62% 30.21 in 10.0 mi NE 12.7 mph 18.4 mph N/A   Clear
8:52 AM 41.0 °F 34.7 °F 27.0 °F 57% 30.21 in 10.0 mi NE 10.4 mph - N/A   Clear
9:52 AM 42.1 °F 36.1 °F 26.1 °F 53% 30.22 in 10.0 mi ENE 10.4 mph - N/A   Clear
10:52 AM 44.1 °F 40.1 °F 27.0 °F 51% 30.22 in 10.0 mi Variable 6.9 mph - N/A   Clear
12:52 PM 46.9 °F - 26.1 °F 44% 30.20 in 10.0 mi ENE 8.1 mph - N/A   Clear
1:52 PM 46.9 °F - 26.1 °F 44% 30.19 in 10.0 mi East 9.2 mph - N/A   Clear
2:52 PM 46.9 °F - 25.0 °F 42% 30.17 in 10.0 mi East 10.4 mph - N/A   Clear
3:52 PM 46.9 °F - 24.1 °F 41% 30.16 in 10.0 mi NE 11.5 mph - N/A   Clear
4:52 PM 46.0 °F 43.1 °F 23.0 °F 40% 30.17 in 10.0 mi Variable 5.8 mph - N/A   Clear
5:52 PM 44.1 °F 39.5 °F 21.9 °F 42% 30.16 in 10.0 mi ENE 8.1 mph - N/A   Partly Cloudy
6:52 PM 42.1 °F 37.1 °F 19.9 °F 41% 30.15 in 10.0 mi East 8.1 mph - N/A   Overcast
7:52 PM 41.0 °F 37.1 °F 21.0 °F 45% 30.15 in - NE 5.8 mph - N/A   Overcast
8:52 PM 41.0 °F 36.4 °F 21.0 °F 45% 30.13 in 10.0 mi ENE 6.9 mph - N/A   Overcast
9:52 PM 39.9 °F 35.1 °F 21.9 °F 49% 30.12 in 10.0 mi ENE 6.9 mph - N/A   Overcast
10:52 PM 39.0 °F 34.8 °F 26.1 °F 60% 30.08 in 10.0 mi Variable 5.8 mph - 0.00 in Rain Light Rain
11:52 PM 39.9 °F 35.8 °F 27.0 °F 60% 30.06 in 10.0 mi East 5.8 mph - 0.00 in   Mostly Cloudy